Regional Weather Roundup
Issued by NWS

Home | Current Version | Previous Version | Graphics & Text | Print | Product List | Glossary On
Versions: 1 2 3 4 5 6 7 8 9 10 11 12 13 14 15 16 17 18 19 20 21 22 23 24 25 26 27 28 29 30 31 32 33 34 35 36 37 38 39 40 41 42 43 44 45 46 47 48 49 50
531
ASUS45 KPSR 261410
RWRAZ

ARIZONA HOURLY REGIONAL WEATHER ROUNDUP
NATIONAL WEATHER SERVICE PHOENIX AZ
700 AM MST MON SEP 26 2016

NOTE: FAIR INDICATES FEW OR NO CLOUDS BELOW 12,000 FEET WITH NO
SIGNIFICANT WEATHER AND/OR OBSTRUCTIONS TO VISIBILITY.

AZZ001>003-036-261500-
NORTHWEST ARIZONA

CITY           SKY/WX    TMP DP  RH WIND       PRES   REMARKS
BULLHEAD CITY  CLEAR     79  37  22 N22       30.05R
KINGMAN        CLEAR     57  34  41 E12       30.23R
$$

AZZ004>008-015-016-018-261500-
NORTH CENTRAL ARIZONA

CITY           SKY/WX    TMP DP  RH WIND       PRES   REMARKS
GRAND CANYON   CLEAR     54  30  40 E10       30.46R
PRESCOTT       PTCLDY    50  39  66 S6        30.32R
FLAGSTAFF      CLEAR     50  33  52 NE12      30.46R
PAYSON         MOCLDY    61  34  36 NE14      30.35R
PAGE           CLEAR     58  33  39 W3        30.38R
$$

AZZ009>014-017-261500-
NORTHEAST ARIZONA

CITY           SKY/WX    TMP DP  RH WIND       PRES   REMARKS
WINSLOW        MOCLDY    50  30  46 CALM      30.40R
SAINT JOHNS    PTCLDY    53  36  52 E13       30.40S
WINDOW ROCK    PTCLDY    38  29  70 CALM      30.49S
SHOW LOW       MOCLDY    48  32  53 E12       30.41R
$$

AZZ023-261500-
GREATER PHOENIX AREA

CITY           SKY/WX    TMP DP  RH WIND       PRES   REMARKS
PHOENIX        CLOUDY    83  48  29 E12       30.04R
BUCKEYE        MOCLDY    81  45  28 E9        30.05R
GLENDALE       CLOUDY    81  43  26 CALM      30.06R
LUKE AFB       CLOUDY    81  43  26 E8        30.04R
DEER VALLEY    CLOUDY    81  44  27 NE3       30.07R
SCOTTSDALE     CLOUDY    82  47  29 E9        30.08R
MESA-FALCON    MOCLDY   N/A N/A N/A VRB5      30.04R
MESA-GATEWAY   MOCLDY    81  48  32 SE6       30.08R
CHANDLER       PTCLDY    81  48  32 SE9       30.06R
$$

AZZ027-028-261500-
SOUTHWEST MARICOPA COUNTY AND PINAL COUNTY

CITY           SKY/WX    TMP DP  RH WIND       PRES   REMARKS
CASA GRANDE    MOCLDY    77  48  36 E8        30.08R
GILA BEND      MOCLDY    83  51  32 E13       30.00R
$$

AZZ503-504-507>509-261500-
SOUTHEAST ARIZONA

CITY           SKY/WX    TMP DP  RH WIND       PRES   REMARKS
TUCSON         CLOUDY    70  53  54 E5        30.15R
DAVIS-MONTHAN  CLOUDY    67  54  62 E7G18     30.14F
RYAN FIELD     CLEAR     70  52  52 E14       30.14R
NOGALES        CLOUDY    67  44  43 VRB5G16   30.17R
SIERRA VISTA   CLOUDY    57  50  77 SE9       30.25R
DOUGLAS        LGT RAIN  58  49  72 SE5       30.24R
SAFFORD        LGT RAIN  68  47  46 E8        30.21R
$$

AZZ020-021-025-026-031-261500-
SOUTHWEST ARIZONA

CITY           SKY/WX    TMP DP  RH WIND       PRES   REMARKS
YUMA           MOCLDY    77  38  24 NE9       29.93R
$$

CAZ031-033-041-043-047-048-061-261500-
SOUTHERN CALIFORNIA

CITY           SKY/WX    TMP DP  RH WIND       PRES   REMARKS
DOWNTOWN L.A.  CLEAR     73  34  23 VRB3      29.93S
L.A. AIRPORT   PTCLDY    82  24  12 N7        29.93S
SAN DIEGO      PTCLDY    73  44  35 CALM      29.91R
BURBANK        CLEAR     68  33  27 CALM      29.97R
ONTARIO        PTCLDY    68  30  24 W3        29.99R
RIVERSIDE      CLEAR     67  35  30 VRB3      29.99R
PALM SPRINGS   CLEAR     82  36  19 W7        29.99R
EL CENTRO NAS  PTCLDY    71  35  26 SW7       29.94R
IMPERIAL       CLEAR     70  43  37 W7        29.92R
BLYTHE         CLEAR     80  33  18 N14       29.99R
NEEDLES        CLEAR     80  36  20 N13       30.07R
$$

NVZ020-UTZ003-261500-
SOUTHERN NEVADA-UTAH

CITY           SKY/WX    TMP DP  RH WIND       PRES   REMARKS
LAS VEGAS      PTCLDY    68  29  23 S3        30.20R
SALT LAKE CITY CLEAR     50  44  80 SE6       30.42R
$$

NMZ009-TXZ055-261500-
NEW MEXICO-WEST TEXAS

CITY           SKY/WX    TMP DP  RH WIND       PRES   REMARKS
ALBUQUERQUE    MOSUNNY   56  34  43 CALM      30.48R
EL PASO        CLOUDY    63  41  44 NE12      30.30R
$$


........................KEY........................
SKY/WX - SKY CONDITION/WEATHER
TMP    - TEMPERATURE IN FAHRENHEIT
DP     - DEW POINT IN FAHRENHEIT
RH     - RELATIVE HUMIDITY IN PERCENT
WIND   - DIRECTION AND SPEED IN MILES PER HOUR (MPH)
VRB    - VARIABLE WIND DIRECTION
PRES   - MEAN SEA LEVEL PRESSURE IN INCHES OF MERCURY
         F - FALLING PRESSURE   R - RISING PRESSURE
         S - STEADY PRESSURE
VSB    - VISIBILITY IN MILES
HX     - HEAT INDEX IN FAHRENHEIT
WCI    - WIND CHILL INDEX IN FAHRENHEIT
TC     - TEMPERATURE IN CELSIUS WHICH IS ALSO KNOWN AS
         TEMPERATURE IN CENTIGRADE
AFB    - AIR FORCE BASE
         LUKE AFB IS LUKE AIR FORCE BASE
         DAVIS-MONTHAN IS DAVIS-MONTHAN AIR FORCE BASE
NAS    - NAVAL AIR STATION
         EL CENTRO NAS IS EL CENTRO NAVAL AIR STATION
N/A    - NOT AVAILABLE





USA.gov is the U.S. government's official web portal to all federal, state and local government web resources and services.